owner,sensor,date,latitude,longitude,air_pressure(mBar),qcFlag 
TABS,ioos:station:wmo:42043:1,2019-06-01T04:00:00Z,28.9818,-94.9186,1013.98,11111222 
TABS,ioos:station:wmo:42043:1,2019-06-01T05:00:00Z,28.9818,-94.9186,1014.16,11111222 
TABS,ioos:station:wmo:42043:1,2019-06-01T06:00:00Z,28.9818,-94.9186,1014.24,11111222 
TABS,ioos:station:wmo:42043:1,2019-06-01T07:00:00Z,28.9818,-94.9186,1013.67,11111222 
TABS,ioos:station:wmo:42043:1,2019-06-01T08:00:00Z,28.9818,-94.9186,1013.08,11111222 
TABS,ioos:station:wmo:42043:1,2019-06-01T09:00:00Z,28.9818,-94.9186,1012.94,11111222 
TABS,ioos:station:wmo:42043:1,2019-06-01T10:00:00Z,28.9818,-94.9186,1012.8,11111222 
TABS,ioos:station:wmo:42043:1,2019-06-01T11:00:00Z,28.9818,-94.9186,1012.62,11111222 
TABS,ioos:station:wmo:42043:1,2019-06-01T12:00:00Z,28.9818,-94.9186,1012.95,11111222 
TABS,ioos:station:wmo:42043:1,2019-06-01T12:30:00Z,28.9818,-94.9186,1013.31,11111222 
TABS,ioos:station:wmo:42043:1,2019-06-01T14:00:00Z,28.9818,-94.9186,1014.22,11111222 
TABS,ioos:station:wmo:42043:1,2019-06-01T15:00:00Z,28.9818,-94.9186,1014.56,11111222 
TABS,ioos:station:wmo:42043:1,2019-06-01T16:00:00Z,28.9818,-94.9186,1015.11,11111222 
TABS,ioos:station:wmo:42043:1,2019-06-01T17:00:00Z,28.9818,-94.9186,1014.97,11111222 
TABS,ioos:station:wmo:42043:1,2019-06-01T18:00:00Z,28.9818,-94.9186,1014.86,11111222 
TABS,ioos:station:wmo:42043:1,2019-06-01T19:00:00Z,28.9818,-94.9186,1014.43,11111222 
TABS,ioos:station:wmo:42043:1,2019-06-01T20:00:00Z,28.9818,-94.9186,1013.79,11111222 
TABS,ioos:station:wmo:42043:1,2019-06-01T21:00:00Z,28.9818,-94.9186,1013.22,11111222 
TABS,ioos:station:wmo:42043:1,2019-06-01T22:00:00Z,28.9818,-94.9186,1012.68,11111222 
TABS,ioos:station:wmo:42043:1,2019-06-01T23:00:00Z,28.9818,-94.9186,1011.88,11111222 
TABS,ioos:station:wmo:42043:1,2019-06-01T23:30:00Z,28.9818,-94.9186,1011.73,11111222 
TABS,ioos:station:wmo:42043:1,2019-06-02T04:00:00Z,28.9818,-94.9186,1012.68,11111222 
TABS,ioos:station:wmo:42043:1,2019-06-02T05:00:00Z,28.9818,-94.9186,1012.45,11111222 
TABS,ioos:station:wmo:42043:1,2019-06-02T06:00:00Z,28.9818,-94.9186,1012.49,11111222 
TABS,ioos:station:wmo:42043:1,2019-06-02T07:00:00Z,28.9818,-94.9186,1012.41,11111222 
TABS,ioos:station:wmo:42043:1,2019-06-02T08:00:00Z,28.9818,-94.9186,1011.7,11111222 
TABS,ioos:station:wmo:42043:1,2019-06-02T09:00:00Z,28.9818,-94.9186,1011.52,11111222 
TABS,ioos:station:wmo:42043:1,2019-06-02T10:00:00Z,28.9818,-94.9186,1011.89,11111222 
TABS,ioos:station:wmo:42043:1,2019-06-02T11:00:00Z,28.9818,-94.9186,1012.4,11111222 
TABS,ioos:station:wmo:42043:1,2019-06-02T12:00:00Z,28.9818,-94.9186,1013.2,11111222 
TABS,ioos:station:wmo:42043:1,2019-06-02T13:00:00Z,28.9818,-94.9186,1013.28,11111222 
TABS,ioos:station:wmo:42043:1,2019-06-02T14:00:00Z,28.9818,-94.9186,1013.74,11111222 
TABS,ioos:station:wmo:42043:1,2019-06-02T15:00:00Z,28.9818,-94.9186,1014.11,11111222 
TABS,ioos:station:wmo:42043:1,2019-06-02T16:00:00Z,28.9818,-94.9186,1014.15,11111222 
TABS,ioos:station:wmo:42043:1,2019-06-02T17:00:00Z,28.9818,-94.9186,1014.23,11111222 
TABS,ioos:station:wmo:42043:1,2019-06-02T18:00:00Z,28.9818,-94.9186,1014.57,11111222 
TABS,ioos:station:wmo:42043:1,2019-06-02T19:00:00Z,28.9818,-94.9186,1013.76,11111222 
TABS,ioos:station:wmo:42043:1,2019-06-02T20:00:00Z,28.9818,-94.9186,1013.09,11111222 
TABS,ioos:station:wmo:42043:1,2019-06-02T21:00:00Z,28.9818,-94.9186,1012.33,11111222 
TABS,ioos:station:wmo:42043:1,2019-06-02T22:00:00Z,28.9818,-94.9186,1012.02,11111222 
TABS,ioos:station:wmo:42043:1,2019-06-02T23:00:00Z,28.9818,-94.9186,1012.02,11111222 
TABS,ioos:station:wmo:42043:1,2019-06-02T23:30:00Z,28.9818,-94.9186,1011.98,11111222 
TABS,ioos:station:wmo:42043:1,2019-06-03T04:00:00Z,28.9818,-94.9186,1012.75,11111222 
TABS,ioos:station:wmo:42043:1,2019-06-03T05:00:00Z,28.9818,-94.9186,1012.49,11111222 
TABS,ioos:station:wmo:42043:1,2019-06-03T06:00:00Z,28.9818,-94.9186,1012.98,11111222 
TABS,ioos:station:wmo:42043:1,2019-06-03T07:00:00Z,28.9818,-94.9186,1013.12,11111222 
TABS,ioos:station:wmo:42043:1,2019-06-03T08:00:00Z,28.9818,-94.9186,1012.95,11111222 
TABS,ioos:station:wmo:42043:1,2019-06-03T09:00:00Z,28.9818,-94.9186,1012.93,11111222 
TABS,ioos:station:wmo:42043:1,2019-06-03T10:00:00Z,28.9818,-94.9186,1013.05,11111222 
TABS,ioos:station:wmo:42043:1,2019-06-03T11:00:00Z,28.9818,-94.9186,1013.54,11111222 
TABS,ioos:station:wmo:42043:1,2019-06-03T12:00:00Z,28.9818,-94.9186,1014.15,11111222 
TABS,ioos:station:wmo:42043:1,2019-06-03T13:00:00Z,28.9818,-94.9186,1014.65,11111222 
TABS,ioos:station:wmo:42043:1,2019-06-03T14:00:00Z,28.9818,-94.9186,1015.43,11111222 
TABS,ioos:station:wmo:42043:1,2019-06-03T15:00:00Z,28.9818,-94.9186,1015.59,11111222 
TABS,ioos:station:wmo:42043:1,2019-06-03T16:00:00Z,28.9818,-94.9186,1015.53,11111222 
TABS,ioos:station:wmo:42043:1,2019-06-03T17:00:00Z,28.9818,-94.9186,1015.83,11111222 
TABS,ioos:station:wmo:42043:1,2019-06-03T18:00:00Z,28.9818,-94.9186,1015.51,11111222 
TABS,ioos:station:wmo:42043:1,2019-06-03T19:00:00Z,28.9818,-94.9186,1015.01,11111222 
TABS,ioos:station:wmo:42043:1,2019-06-03T20:00:00Z,28.9818,-94.9186,1014.61,11111222 
TABS,ioos:station:wmo:42043:1,2019-06-03T21:00:00Z,28.9818,-94.9186,1014.1,11111222 
TABS,ioos:station:wmo:42043:1,2019-06-03T22:00:00Z,28.9818,-94.9186,1013.3,11111222 
TABS,ioos:station:wmo:42043:1,2019-06-03T23:00:00Z,28.9818,-94.9186,1012.95,11111222 
TABS,ioos:station:wmo:42043:1,2019-06-03T23:30:00Z,28.9818,-94.9186,1012.62,11111222 
TABS,ioos:station:wmo:42043:1,2019-06-04T04:00:00Z,28.9818,-94.9186,1014.33,11111222 
TABS,ioos:station:wmo:42043:1,2019-06-04T05:00:00Z,28.9818,-94.9186,1014.63,11111222 
TABS,ioos:station:wmo:42043:1,2019-06-04T06:00:00Z,28.9818,-94.9186,1014.32,11111222 
TABS,ioos:station:wmo:42043:1,2019-06-04T07:00:00Z,28.9818,-94.9186,1014.47,11111222 
TABS,ioos:station:wmo:42043:1,2019-06-04T08:00:00Z,28.9818,-94.9186,1013.89,11111222 
TABS,ioos:station:wmo:42043:1,2019-06-04T09:00:00Z,28.9818,-94.9186,1013.37,11111222 
TABS,ioos:station:wmo:42043:1,2019-06-04T10:00:00Z,28.9818,-94.9186,1013.38,11111222 
TABS,ioos:station:wmo:42043:1,2019-06-04T11:00:00Z,28.9818,-94.9186,1013.38,11111222 
TABS,ioos:station:wmo:42043:1,2019-06-04T12:00:00Z,28.9818,-94.9186,1013.52,11111222 
TABS,ioos:station:wmo:42043:1,2019-06-04T13:00:00Z,28.9818,-94.9186,1014.13,11111222 
TABS,ioos:station:wmo:42043:1,2019-06-04T14:00:00Z,28.9818,-94.9186,1014.72,11111222 
TABS,ioos:station:wmo:42043:1,2019-06-04T15:00:00Z,28.9818,-94.9186,1014.98,11111222 
TABS,ioos:station:wmo:42043:1,2019-06-04T16:00:00Z,28.9818,-94.9186,1014.75,11111222 
TABS,ioos:station:wmo:42043:1,2019-06-04T17:00:00Z,28.9818,-94.9186,1014.58,11111222 
TABS,ioos:station:wmo:42043:1,2019-06-04T18:00:00Z,28.9818,-94.9186,1014.23,11111222 
TABS,ioos:station:wmo:42043:1,2019-06-04T19:00:00Z,28.9818,-94.9186,1014.05,11111222 
TABS,ioos:station:wmo:42043:1,2019-06-04T20:00:00Z,28.9818,-94.9186,1013.93,11111222 
TABS,ioos:station:wmo:42043:1,2019-06-04T21:00:00Z,28.9818,-94.9186,1013.77,11111222 
TABS,ioos:station:wmo:42043:1,2019-06-04T22:00:00Z,28.9818,-94.9186,1013.09,11111222 
TABS,ioos:station:wmo:42043:1,2019-06-04T23:00:00Z,28.9818,-94.9186,1012.82,11111222 
TABS,ioos:station:wmo:42043:1,2019-06-04T23:30:00Z,28.9818,-94.9186,1012.69,11111222 
TABS,ioos:station:wmo:42043:1,2019-06-05T04:00:00Z,28.9818,-94.9186,1012.73,11111222 
TABS,ioos:station:wmo:42043:1,2019-06-05T05:00:00Z,28.9818,-94.9186,1012.06,11111222 
TABS,ioos:station:wmo:42043:1,2019-06-05T06:00:00Z,28.9818,-94.9186,1011.42,11111222 
TABS,ioos:station:wmo:42043:1,2019-06-05T07:00:00Z,28.9818,-94.9186,1010.53,11111222 
TABS,ioos:station:wmo:42043:1,2019-06-05T08:00:00Z,28.9818,-94.9186,1010.43,11111222 
TABS,ioos:station:wmo:42043:1,2019-06-05T09:00:00Z,28.9818,-94.9186,1010.01,11111222 
TABS,ioos:station:wmo:42043:1,2019-06-05T10:00:00Z,28.9818,-94.9186,1009.88,11111222 
TABS,ioos:station:wmo:42043:1,2019-06-05T11:00:00Z,28.9818,-94.9186,1009.69,11111222 
TABS,ioos:station:wmo:42043:1,2019-06-05T12:00:00Z,28.9818,-94.9186,1009.27,11111222 
TABS,ioos:station:wmo:42043:1,2019-06-05T13:00:00Z,28.9818,-94.9186,1009.8,11111222 
TABS,ioos:station:wmo:42043:1,2019-06-05T14:00:00Z,28.9818,-94.9186,1010.12,11111222 
TABS,ioos:station:wmo:42043:1,2019-06-05T15:00:00Z,28.9818,-94.9186,1010.2,11111222 
TABS,ioos:station:wmo:42043:1,2019-06-05T16:00:00Z,28.9818,-94.9186,1010.19,11111222 
TABS,ioos:station:wmo:42043:1,2019-06-05T17:00:00Z,28.9818,-94.9186,1009.96,11111222 
TABS,ioos:station:wmo:42043:1,2019-06-05T18:00:00Z,28.9818,-94.9186,1007.36,11111222 
TABS,ioos:station:wmo:42043:1,2019-06-05T19:00:00Z,28.9818,-94.9186,1006.83,11111222 
TABS,ioos:station:wmo:42043:1,2019-06-05T20:00:00Z,28.9818,-94.9186,1005.45,11111222 
TABS,ioos:station:wmo:42043:1,2019-06-05T21:00:00Z,28.9818,-94.9186,1005.87,11111222 
TABS,ioos:station:wmo:42043:1,2019-06-05T22:00:00Z,28.9818,-94.9186,1005.28,11111222 
TABS,ioos:station:wmo:42043:1,2019-06-05T23:00:00Z,28.9818,-94.9186,1004.29,11111222 
TABS,ioos:station:wmo:42043:1,2019-06-05T23:30:00Z,28.9818,-94.9186,1004.55,11111222 
TABS,ioos:station:wmo:42043:1,2019-06-06T04:00:00Z,28.9818,-94.9186,1007.09,11111222 
TABS,ioos:station:wmo:42043:1,2019-06-06T05:00:00Z,28.9818,-94.9186,1006.94,11111222 
TABS,ioos:station:wmo:42043:1,2019-06-06T06:00:00Z,28.9818,-94.9186,1007.93,11111222 
TABS,ioos:station:wmo:42043:1,2019-06-06T07:00:00Z,28.9818,-94.9186,1007.8,11111222 
TABS,ioos:station:wmo:42043:1,2019-06-06T08:00:00Z,28.9818,-94.9186,1006.79,11111222 
TABS,ioos:station:wmo:42043:1,2019-06-06T08:30:00Z,28.9818,-94.9186,1006.84,11111222 
TABS,ioos:station:wmo:42043:1,2019-06-06T10:00:00Z,28.9818,-94.9186,1007.13,11111222 
TABS,ioos:station:wmo:42043:1,2019-06-06T11:00:00Z,28.9818,-94.9186,1007.7,11111222 
TABS,ioos:station:wmo:42043:1,2019-06-06T12:00:00Z,28.9818,-94.9186,1008.06,11111222 
TABS,ioos:station:wmo:42043:1,2019-06-06T13:00:00Z,28.9818,-94.9186,1008.09,11111222 
TABS,ioos:station:wmo:42043:1,2019-06-06T14:00:00Z,28.9818,-94.9186,1008.0,11111222 
TABS,ioos:station:wmo:42043:1,2019-06-06T15:00:00Z,28.9818,-94.9186,1006.79,11111222 
TABS,ioos:station:wmo:42043:1,2019-06-06T16:00:00Z,28.9818,-94.9186,1007.2,11111222 
TABS,ioos:station:wmo:42043:1,2019-06-06T17:00:00Z,28.9818,-94.9186,1008.04,11111222 
TABS,ioos:station:wmo:42043:1,2019-06-06T18:00:00Z,28.9818,-94.9186,1008.37,11111222 
TABS,ioos:station:wmo:42043:1,2019-06-06T19:00:00Z,28.9818,-94.9186,1008.25,11111222 
TABS,ioos:station:wmo:42043:1,2019-06-06T20:00:00Z,28.9818,-94.9186,1007.77,11111222 
TABS,ioos:station:wmo:42043:1,2019-06-06T21:00:00Z,28.9818,-94.9186,1007.07,11111222 
TABS,ioos:station:wmo:42043:1,2019-06-06T22:00:00Z,28.9818,-94.9186,1006.58,11111222 
TABS,ioos:station:wmo:42043:1,2019-06-06T23:00:00Z,28.9818,-94.9186,1005.79,11111222 
TABS,ioos:station:wmo:42043:1,2019-06-06T23:30:00Z,28.9818,-94.9186,1005.72,11111222 
TABS,ioos:station:wmo:42043:1,2019-06-07T04:00:00Z,28.9818,-94.9186,1007.07,11111222 
TABS,ioos:station:wmo:42043:1,2019-06-07T06:00:00Z,28.9818,-94.9186,1006.28,11111222 
TABS,ioos:station:wmo:42043:1,2019-06-07T07:00:00Z,28.9818,-94.9186,1006.3,11111222 
TABS,ioos:station:wmo:42043:1,2019-06-07T08:00:00Z,28.9818,-94.9186,1006.35,11111222 
TABS,ioos:station:wmo:42043:1,2019-06-07T09:00:00Z,28.9818,-94.9186,1006.35,11111222 
TABS,ioos:station:wmo:42043:1,2019-06-07T09:30:00Z,28.9818,-94.9186,1006.32,11111222 
TABS,ioos:station:wmo:42043:1,2019-06-07T11:00:00Z,28.9818,-94.9186,1006.84,11111222 
TABS,ioos:station:wmo:42043:1,2019-06-07T12:00:00Z,28.9818,-94.9186,1006.81,11111222 
TABS,ioos:station:wmo:42043:1,2019-06-07T13:00:00Z,28.9818,-94.9186,1007.26,11111222 
TABS,ioos:station:wmo:42043:1,2019-06-07T13:30:00Z,28.9818,-94.9186,1007.32,11111222 
TABS,ioos:station:wmo:42043:1,2019-06-07T14:30:00Z,28.9818,-94.9186,1007.67,11111222 
TABS,ioos:station:wmo:42043:1,2019-06-07T15:30:00Z,28.9818,-94.9186,1007.69,11111222 
TABS,ioos:station:wmo:42043:1,2019-06-07T16:30:00Z,28.9818,-94.9186,1007.68,11111222 
TABS,ioos:station:wmo:42043:1,2019-06-07T18:00:00Z,28.9818,-94.9186,1007.15,11111222 
TABS,ioos:station:wmo:42043:1,2019-06-07T19:00:00Z,28.9818,-94.9186,1006.51,11111222 
TABS,ioos:station:wmo:42043:1,2019-06-07T20:00:00Z,28.9818,-94.9186,1006.11,11111222 
TABS,ioos:station:wmo:42043:1,2019-06-07T21:00:00Z,28.9818,-94.9186,1005.4,11111222 
TABS,ioos:station:wmo:42043:1,2019-06-07T22:00:00Z,28.9818,-94.9186,1005.09,11111222 
TABS,ioos:station:wmo:42043:1,2019-06-07T23:00:00Z,28.9818,-94.9186,1004.73,11111222 
TABS,ioos:station:wmo:42043:1,2019-06-07T23:30:00Z,28.9818,-94.9186,1004.74,11111222 
TABS,ioos:station:wmo:42043:1,2019-06-08T04:00:00Z,28.9818,-94.9186,1006.88,11111222 
TABS,ioos:station:wmo:42043:1,2019-06-08T05:00:00Z,28.9818,-94.9186,1006.91,11111222 
TABS,ioos:station:wmo:42043:1,2019-06-08T06:00:00Z,28.9818,-94.9186,1007.02,11111222 
TABS,ioos:station:wmo:42043:1,2019-06-08T07:00:00Z,28.9818,-94.9186,1007.04,11111222 
TABS,ioos:station:wmo:42043:1,2019-06-08T08:00:00Z,28.9818,-94.9186,1007.04,11111222 
TABS,ioos:station:wmo:42043:1,2019-06-08T09:00:00Z,28.9818,-94.9186,1007.29,11111222 
TABS,ioos:station:wmo:42043:1,2019-06-08T10:00:00Z,28.9818,-94.9186,1007.15,11111222 
TABS,ioos:station:wmo:42043:1,2019-06-08T11:00:00Z,28.9818,-94.9186,1007.29,11111222 
TABS,ioos:station:wmo:42043:1,2019-06-08T11:30:00Z,28.9818,-94.9186,1007.65,11111222 
TABS,ioos:station:wmo:42043:1,2019-06-08T13:00:00Z,28.9818,-94.9186,1008.44,11111222 
TABS,ioos:station:wmo:42043:1,2019-06-08T14:00:00Z,28.9818,-94.9186,1009.01,11111222 
TABS,ioos:station:wmo:42043:1,2019-06-08T15:00:00Z,28.9818,-94.9186,1008.88,11111222 
TABS,ioos:station:wmo:42043:1,2019-06-08T16:00:00Z,28.9818,-94.9186,1009.14,11111222 
TABS,ioos:station:wmo:42043:1,2019-06-08T17:00:00Z,28.9818,-94.9186,1009.09,11111222 
TABS,ioos:station:wmo:42043:1,2019-06-08T18:00:00Z,28.9818,-94.9186,1008.74,11111222 
TABS,ioos:station:wmo:42043:1,2019-06-08T23:00:00Z,28.9818,-94.9186,1007.19,11111222 
TABS,ioos:station:wmo:42043:1,2019-06-08T23:30:00Z,28.9818,-94.9186,1007.3,11111222 
TABS,ioos:station:wmo:42043:1,2019-06-09T04:00:00Z,28.9818,-94.9186,1009.2,11111222 
TABS,ioos:station:wmo:42043:1,2019-06-09T05:00:00Z,28.9818,-94.9186,1009.13,11111222 
TABS,ioos:station:wmo:42043:1,2019-06-09T06:00:00Z,28.9818,-94.9186,1009.1,11111222 
TABS,ioos:station:wmo:42043:1,2019-06-09T07:00:00Z,28.9818,-94.9186,1008.76,11111222 
TABS,ioos:station:wmo:42043:1,2019-06-09T08:00:00Z,28.9818,-94.9186,1008.9,11111222 
TABS,ioos:station:wmo:42043:1,2019-06-09T09:00:00Z,28.9818,-94.9186,1009.11,11111222 
TABS,ioos:station:wmo:42043:1,2019-06-09T10:00:00Z,28.9818,-94.9186,1009.65,11111222 
TABS,ioos:station:wmo:42043:1,2019-06-09T11:00:00Z,28.9818,-94.9186,1010.41,11111222 
TABS,ioos:station:wmo:42043:1,2019-06-09T12:00:00Z,28.9818,-94.9186,1011.21,11111222 
TABS,ioos:station:wmo:42043:1,2019-06-09T13:00:00Z,28.9818,-94.9186,1011.82,11111222 
TABS,ioos:station:wmo:42043:1,2019-06-09T14:00:00Z,28.9818,-94.9186,1012.35,11111222 
TABS,ioos:station:wmo:42043:1,2019-06-09T15:00:00Z,28.9818,-94.9186,1012.35,11111222 
TABS,ioos:station:wmo:42043:1,2019-06-09T16:00:00Z,28.9818,-94.9186,1012.26,11111222 
TABS,ioos:station:wmo:42043:1,2019-06-09T17:00:00Z,28.9818,-94.9186,1012.34,11111222 
TABS,ioos:station:wmo:42043:1,2019-06-09T18:00:00Z,28.9818,-94.9186,1012.28,11111222 
TABS,ioos:station:wmo:42043:1,2019-06-09T19:00:00Z,28.9818,-94.9186,1012.19,11111222 
TABS,ioos:station:wmo:42043:1,2019-06-09T20:00:00Z,28.9818,-94.9186,1012.42,11111222 
TABS,ioos:station:wmo:42043:1,2019-06-09T21:00:00Z,28.9818,-94.9186,1012.42,11111222 
TABS,ioos:station:wmo:42043:1,2019-06-09T22:00:00Z,28.9818,-94.9186,1012.66,11111222 
TABS,ioos:station:wmo:42043:1,2019-06-09T23:00:00Z,28.9818,-94.9186,1012.98,11111222 
TABS,ioos:station:wmo:42043:1,2019-06-09T23:30:00Z,28.9818,-94.9186,1012.9,11111222 
TABS,ioos:station:wmo:42043:1,2019-06-10T04:00:00Z,28.9818,-94.9186,1013.92,11111222 
TABS,ioos:station:wmo:42043:1,2019-06-10T05:00:00Z,28.9818,-94.9186,1014.5,11111222 
TABS,ioos:station:wmo:42043:1,2019-06-10T06:00:00Z,28.9818,-94.9186,1014.13,11111222 
TABS,ioos:station:wmo:42043:1,2019-06-10T07:00:00Z,28.9818,-94.9186,1014.09,11111222 
TABS,ioos:station:wmo:42043:1,2019-06-10T08:00:00Z,28.9818,-94.9186,1015.14,11111222 
TABS,ioos:station:wmo:42043:1,2019-06-10T09:00:00Z,28.9818,-94.9186,1015.69,11111222 
TABS,ioos:station:wmo:42043:1,2019-06-10T10:00:00Z,28.9818,-94.9186,1015.87,11111222 
TABS,ioos:station:wmo:42043:1,2019-06-10T11:00:00Z,28.9818,-94.9186,1016.53,11111222 
TABS,ioos:station:wmo:42043:1,2019-06-10T12:00:00Z,28.9818,-94.9186,1017.09,11111222 
TABS,ioos:station:wmo:42043:1,2019-06-10T13:00:00Z,28.9818,-94.9186,1017.59,11111222 
TABS,ioos:station:wmo:42043:1,2019-06-10T14:00:00Z,28.9818,-94.9186,1018.3,11111222 
TABS,ioos:station:wmo:42043:1,2019-06-10T15:00:00Z,28.9818,-94.9186,1018.63,11111222 
TABS,ioos:station:wmo:42043:1,2019-06-10T16:00:00Z,28.9818,-94.9186,1018.79,11111222 
TABS,ioos:station:wmo:42043:1,2019-06-10T17:00:00Z,28.9818,-94.9186,1018.83,11111222 
TABS,ioos:station:wmo:42043:1,2019-06-10T18:00:00Z,28.9818,-94.9186,1018.71,11111222 
TABS,ioos:station:wmo:42043:1,2019-06-10T19:00:00Z,28.9818,-94.9186,1018.68,11111222 
TABS,ioos:station:wmo:42043:1,2019-06-10T20:00:00Z,28.9818,-94.9186,1018.24,11111222 
TABS,ioos:station:wmo:42043:1,2019-06-10T21:00:00Z,28.9818,-94.9186,1017.72,11111222 
TABS,ioos:station:wmo:42043:1,2019-06-10T22:00:00Z,28.9818,-94.9186,1017.18,11111222 
TABS,ioos:station:wmo:42043:1,2019-06-10T23:00:00Z,28.9818,-94.9186,1016.82,11111222 
TABS,ioos:station:wmo:42043:1,2019-06-10T23:30:00Z,28.9818,-94.9186,1016.65,11111222 
TABS,ioos:station:wmo:42043:1,2019-06-11T04:00:00Z,28.9818,-94.9186,1018.19,11111222 
TABS,ioos:station:wmo:42043:1,2019-06-11T05:00:00Z,28.9818,-94.9186,1017.98,11111222 
TABS,ioos:station:wmo:42043:1,2019-06-11T06:00:00Z,28.9818,-94.9186,1017.68,11111222 
TABS,ioos:station:wmo:42043:1,2019-06-11T07:00:00Z,28.9818,-94.9186,1017.29,11111222 
TABS,ioos:station:wmo:42043:1,2019-06-11T08:00:00Z,28.9818,-94.9186,1016.91,11111222 
TABS,ioos:station:wmo:42043:1,2019-06-11T10:00:00Z,28.9818,-94.9186,1017.18,11111222 
TABS,ioos:station:wmo:42043:1,2019-06-11T11:00:00Z,28.9818,-94.9186,1017.12,11111222 
TABS,ioos:station:wmo:42043:1,2019-06-11T12:00:00Z,28.9818,-94.9186,1017.29,11111222 
TABS,ioos:station:wmo:42043:1,2019-06-11T13:00:00Z,28.9818,-94.9186,1017.75,11111222 
TABS,ioos:station:wmo:42043:1,2019-06-11T14:00:00Z,28.9818,-94.9186,1018.44,11111222 
TABS,ioos:station:wmo:42043:1,2019-06-11T15:00:00Z,28.9818,-94.9186,1018.7,11111222 
TABS,ioos:station:wmo:42043:1,2019-06-11T16:00:00Z,28.9818,-94.9186,1017.92,11111222 
TABS,ioos:station:wmo:42043:1,2019-06-11T17:00:00Z,28.9818,-94.9186,1017.7,11111222 
TABS,ioos:station:wmo:42043:1,2019-06-11T20:00:00Z,28.9818,-94.9186,1015.72,11111222 
TABS,ioos:station:wmo:42043:1,2019-06-11T21:00:00Z,28.9818,-94.9186,1015.37,11111222 
TABS,ioos:station:wmo:42043:1,2019-06-11T22:00:00Z,28.9818,-94.9186,1015.08,11111222 
TABS,ioos:station:wmo:42043:1,2019-06-11T23:00:00Z,28.9818,-94.9186,1014.43,11111222 
TABS,ioos:station:wmo:42043:1,2019-06-11T23:30:00Z,28.9818,-94.9186,1014.69,11111222 
TABS,ioos:station:wmo:42043:1,2019-06-12T04:00:00Z,28.9818,-94.9186,1014.66,11111222 
TABS,ioos:station:wmo:42043:1,2019-06-12T05:00:00Z,28.9818,-94.9186,1014.38,11111222 
TABS,ioos:station:wmo:42043:1,2019-06-12T06:00:00Z,28.9818,-94.9186,1014.38,11111222 
TABS,ioos:station:wmo:42043:1,2019-06-12T07:00:00Z,28.9818,-94.9186,1014.02,11111222 
TABS,ioos:station:wmo:42043:1,2019-06-12T08:00:00Z,28.9818,-94.9186,1013.66,11111222 
TABS,ioos:station:wmo:42043:1,2019-06-12T09:00:00Z,28.9818,-94.9186,1013.8,11111222 
TABS,ioos:station:wmo:42043:1,2019-06-12T10:00:00Z,28.9818,-94.9186,1014.1,11111222 
TABS,ioos:station:wmo:42043:1,2019-06-12T11:00:00Z,28.9818,-94.9186,1014.36,11111222 
TABS,ioos:station:wmo:42043:1,2019-06-12T12:00:00Z,28.9818,-94.9186,1014.0,11111222 
TABS,ioos:station:wmo:42043:1,2019-06-12T13:00:00Z,28.9818,-94.9186,1014.17,11111222 
TABS,ioos:station:wmo:42043:1,2019-06-12T14:00:00Z,28.9818,-94.9186,1015.16,11111222 
TABS,ioos:station:wmo:42043:1,2019-06-12T14:30:00Z,28.9818,-94.9186,1015.39,11111222 
TABS,ioos:station:wmo:42043:1,2019-06-12T16:00:00Z,28.9818,-94.9186,1015.25,11111222 
TABS,ioos:station:wmo:42043:1,2019-06-12T17:00:00Z,28.9818,-94.9186,1015.73,11111222 
TABS,ioos:station:wmo:42043:1,2019-06-12T18:00:00Z,28.9818,-94.9186,1015.37,11111222 
TABS,ioos:station:wmo:42043:1,2019-06-12T19:00:00Z,28.9818,-94.9186,1015.25,11111222 
TABS,ioos:station:wmo:42043:1,2019-06-12T20:00:00Z,28.9818,-94.9186,1014.92,11111222 
TABS,ioos:station:wmo:42043:1,2019-06-12T21:00:00Z,28.9818,-94.9186,1014.23,11111222 
TABS,ioos:station:wmo:42043:1,2019-06-12T22:00:00Z,28.9818,-94.9186,1013.56,11111222 
TABS,ioos:station:wmo:42043:1,2019-06-12T23:00:00Z,28.9818,-94.9186,1013.47,11111222 
TABS,ioos:station:wmo:42043:1,2019-06-12T23:30:00Z,28.9818,-94.9186,1013.4,11111222 
TABS,ioos:station:wmo:42043:1,2019-06-13T04:00:00Z,28.9818,-94.9186,1015.73,11111222 
TABS,ioos:station:wmo:42043:1,2019-06-13T05:00:00Z,28.9818,-94.9186,1015.98,11111222 
TABS,ioos:station:wmo:42043:1,2019-06-13T06:00:00Z,28.9818,-94.9186,1015.99,11111222 
TABS,ioos:station:wmo:42043:1,2019-06-13T07:00:00Z,28.9818,-94.9186,1015.88,11111222 
TABS,ioos:station:wmo:42043:1,2019-06-13T08:00:00Z,28.9818,-94.9186,1015.53,11111222 
TABS,ioos:station:wmo:42043:1,2019-06-13T09:00:00Z,28.9818,-94.9186,1015.8,11111222 
TABS,ioos:station:wmo:42043:1,2019-06-13T10:00:00Z,28.9818,-94.9186,1016.08,11111222 
TABS,ioos:station:wmo:42043:1,2019-06-13T11:00:00Z,28.9818,-94.9186,1016.31,11111222 
TABS,ioos:station:wmo:42043:1,2019-06-13T12:00:00Z,28.9818,-94.9186,1016.55,11111222 
TABS,ioos:station:wmo:42043:1,2019-06-13T13:00:00Z,28.9818,-94.9186,1017.03,11111222 
TABS,ioos:station:wmo:42043:1,2019-06-13T14:00:00Z,28.9818,-94.9186,1017.59,11111222 
TABS,ioos:station:wmo:42043:1,2019-06-13T15:00:00Z,28.9818,-94.9186,1017.77,11111222 
TABS,ioos:station:wmo:42043:1,2019-06-13T16:00:00Z,28.9818,-94.9186,1018.13,11111222 
TABS,ioos:station:wmo:42043:1,2019-06-13T17:00:00Z,28.9818,-94.9186,1018.32,11111222 
TABS,ioos:station:wmo:42043:1,2019-06-13T18:00:00Z,28.9818,-94.9186,1018.1,11111222 
TABS,ioos:station:wmo:42043:1,2019-06-13T19:00:00Z,28.9818,-94.9186,1017.58,11111222 
TABS,ioos:station:wmo:42043:1,2019-06-13T20:00:00Z,28.9818,-94.9186,1017.03,11111222 
TABS,ioos:station:wmo:42043:1,2019-06-13T21:00:00Z,28.9818,-94.9186,1016.72,11111222 
TABS,ioos:station:wmo:42043:1,2019-06-13T22:00:00Z,28.9818,-94.9186,1016.32,11111222 
TABS,ioos:station:wmo:42043:1,2019-06-13T23:00:00Z,28.9818,-94.9186,1015.88,11111222 
TABS,ioos:station:wmo:42043:1,2019-06-13T23:30:00Z,28.9818,-94.9186,1015.89,11111222 
TABS,ioos:station:wmo:42043:1,2019-06-14T04:00:00Z,28.9818,-94.9186,1016.95,11111222 
TABS,ioos:station:wmo:42043:1,2019-06-14T05:00:00Z,28.9818,-94.9186,1016.94,11111222 
TABS,ioos:station:wmo:42043:1,2019-06-14T06:00:00Z,28.9818,-94.9186,1016.78,11111222 
TABS,ioos:station:wmo:42043:1,2019-06-14T07:00:00Z,28.9818,-94.9186,1016.55,11111222 
TABS,ioos:station:wmo:42043:1,2019-06-14T08:00:00Z,28.9818,-94.9186,1016.41,11111222 
TABS,ioos:station:wmo:42043:1,2019-06-14T09:00:00Z,28.9818,-94.9186,1016.99,11111222 
TABS,ioos:station:wmo:42043:1,2019-06-14T10:00:00Z,28.9818,-94.9186,1016.7,11111222 
TABS,ioos:station:wmo:42043:1,2019-06-14T11:00:00Z,28.9818,-94.9186,1016.84,11111222 
TABS,ioos:station:wmo:42043:1,2019-06-14T12:00:00Z,28.9818,-94.9186,1016.98,11111222 
TABS,ioos:station:wmo:42043:1,2019-06-14T13:00:00Z,28.9818,-94.9186,1017.31,11111222 
TABS,ioos:station:wmo:42043:1,2019-06-14T14:00:00Z,28.9818,-94.9186,1017.43,11111222 
TABS,ioos:station:wmo:42043:1,2019-06-14T16:00:00Z,28.9818,-94.9186,1017.7,11111222 
TABS,ioos:station:wmo:42043:1,2019-06-14T16:30:00Z,28.9818,-94.9186,1017.65,11111222 